Location: Kuppenheim
(48.8299°N, 8.2568°E)
Time: 10:17:14
(UTC+00:00)

ATLAS 5 CENTAUR R/B - Pass Details

Date: 20 June 2021
Orbit: 510 x 1148 km, 63.4° (Epoch: 23 July)

Event Time Altitude Azimuth Distance (km) Brightness Sun altitude
Exits shadow 02:29:26 - 244° (WSW) 2,014 3.6 -7.2°
Reaches altitude 10° 02:29:57 10° 247° (WSW) 1,814 3.4 -7.2°
Maximum altitude 02:33:49 45° 321° (NW) 813 2.3 -6.8°
Drops below altitude 10° 02:38:17 10° 34° (NE) 2,084 6.0 -6.3°
Sets 02:40:54 0° 41° (NE) 3,107 8.0 -6.0°
